Humidity-temperature Sensor

Selected Measurement Type: Air Temperature

 
Air Temperature [°C]     6 entries per hour
Showing data from 9/3/2019 (00:00:00 Z) to 9/2/2019 (00:01:00 Z)
Previous Next [ Day | 3-Days | 7-Days ]
First Last
Prev [ Day | 3-Days | 7-Days ] Next
First Last

Start Time:     :
End Time:     :     
Time (in GMT) :00 :50 :40 :30 :20 :10
Previous Next [ Day | 3-Days | 7-Days ]
First Last
Prev [ Day | 3-Days | 7-Days ] Next
First Last


123 => good data
MM => data is determined as missing
-- => data not received/configured
Back to Top Back to Top
9/3/2019 00:00 to 23:10 26.62 26.58 26.63 26.64 26.38 26.53
9/2/2019 23:00 to 22:10 26.67 26.64 26.48 26.81 26.74 26.68
9/2/2019 22:00 to 21:10 26.76 26.60 26.62 26.75 26.82 26.42
9/2/2019 21:00 to 20:10 26.42 26.48 26.46 26.37 26.44 26.83
9/2/2019 20:00 to 19:10 26.80 26.79 26.89 26.81 26.92 26.83
9/2/2019 19:00 to 18:10 26.80 26.85 26.75 26.83 26.77 26.76
9/2/2019 18:00 to 17:10 26.81 26.78 26.87 26.86 26.80 26.81
9/2/2019 17:00 to 16:10 26.81 26.81 26.66 26.69 26.74 26.72
9/2/2019 16:00 to 15:10 26.76 26.77 26.65 26.85 26.73 26.72
9/2/2019 15:00 to 14:10 26.67 26.63 26.86 26.76 26.74 26.65
9/2/2019 14:00 to 13:10 26.67 26.62 26.62 26.66 26.64 26.57
9/2/2019 13:00 to 12:10 26.56 26.53 26.53 26.49 26.45 26.51
9/2/2019 12:00 to 11:10 26.40 26.37 26.34 26.41 26.32 26.29
9/2/2019 11:00 to 10:10 26.30 26.38 26.27 26.25 26.20 26.19
9/2/2019 10:00 to 9:10 26.28 26.28 26.29 26.25 26.19 26.18
9/2/2019 09:00 to 8:10 26.09 26.15 26.03 26.03 26.15 26.05
9/2/2019 08:00 to 7:10 26.00 26.02 26.03 25.97 26.04 26.15
9/2/2019 07:00 to 6:10 25.97 25.99 26.05 25.99 26.13 26.05
9/2/2019 06:00 to 5:10 26.07 26.05 26.07 26.00 26.00 25.97
9/2/2019 05:00 to 4:10 26.01 25.94 25.90 25.91 25.88 25.88
9/2/2019 04:00 to 3:10 25.99 25.93 25.84 25.76 25.84 25.89
9/2/2019 03:00 to 2:10 25.89 25.86 26.01 25.90 25.79 25.84
9/2/2019 02:00 to 1:10 25.46 25.40 25.37 25.63 25.76 25.72
9/2/2019 01:00 to 0:10 25.62 25.47 25.32 25.22 25.25 25.21